Time,TemperatureF,DewpointF,PressureIn,WindDirection,WindDirectionDegrees,WindSpeedMPH,WindSpeedGustMPH,Humidity,HourlyPrecipIn,Conditions,Clouds,dailyrainin,SolarRadiationWatts/m^2,SoftwareType,DateUTC
2013-02-14 00:07:00,33.4,29.0,30.09,NW,310,0.0,0.0,83,0.00,,,0.00,0,weatherlink.com 1.10,2013-02-14 06:07:00,
2013-02-14 00:22:00,33.0,28.0,30.09,NW,310,0.0,0.0,83,0.00,,,0.00,0,weatherlink.com 1.10,2013-02-14 06:22:00,
2013-02-14 00:37:00,32.9,28.0,30.09,NW,311,0.0,0.0,83,0.00,,,0.00,0,weatherlink.com 1.10,2013-02-14 06:37:00,
2013-02-14 00:52:00,32.6,28.0,30.09,North,4,0.0,0.0,83,0.00,,,0.00,0,weatherlink.com 1.10,2013-02-14 06:52:00,
2013-02-14 01:07:00,32.4,28.0,30.09,NW,310,0.0,0.0,83,0.00,,,0.00,0,weatherlink.com 1.10,2013-02-14 07:07:00,
2013-02-14 01:22:00,32.2,28.0,30.09,North,4,0.0,0.0,83,0.00,,,0.00,0,weatherlink.com 1.10,2013-02-14 07:22:00,
2013-02-14 01:37:00,31.9,27.0,30.09,NW,310,0.0,0.0,83,0.00,,,0.00,0,weatherlink.com 1.10,2013-02-14 07:37:00,
2013-02-14 01:52:00,31.8,27.0,30.09,NW,310,0.0,0.0,83,0.00,,,0.00,0,weatherlink.com 1.10,2013-02-14 07:52:00,
2013-02-14 02:07:00,31.8,27.0,30.09,NW,310,0.0,0.0,83,0.00,,,0.00,0,weatherlink.com 1.10,2013-02-14 08:07:00,
2013-02-14 02:22:00,31.5,27.0,30.09,NW,310,0.0,0.0,83,0.00,,,0.00,0,weatherlink.com 1.10,2013-02-14 08:22:00,
2013-02-14 02:37:00,31.1,27.0,30.10,North,4,0.0,0.0,83,0.00,,,0.00,0,weatherlink.com 1.10,2013-02-14 08:37:00,
2013-02-14 02:52:00,31.0,26.0,30.10,NW,310,0.0,0.0,83,0.00,,,0.00,0,weatherlink.com 1.10,2013-02-14 08:52:00,
2013-02-14 03:07:00,31.0,26.0,30.10,NW,310,0.0,0.0,83,0.00,,,0.00,0,weatherlink.com 1.10,2013-02-14 09:07:00,
2013-02-14 03:22:00,31.1,27.0,30.10,NW,310,0.0,0.0,83,0.00,,,0.00,0,weatherlink.com 1.10,2013-02-14 09:22:00,
2013-02-14 03:37:00,30.9,26.0,30.10,North,4,0.0,0.0,83,0.00,,,0.00,0,weatherlink.com 1.10,2013-02-14 09:37:00,
2013-02-14 03:52:00,30.8,26.0,30.11,NW,311,0.0,0.0,83,0.00,,,0.00,0,weatherlink.com 1.10,2013-02-14 09:52:00,
2013-02-14 04:07:00,30.6,26.0,30.11,NW,310,0.0,0.0,84,0.00,,,0.00,0,weatherlink.com 1.10,2013-02-14 10:07:00,
2013-02-14 04:22:00,30.4,26.0,30.12,NW,310,0.0,0.0,84,0.00,,,0.00,0,weatherlink.com 1.10,2013-02-14 10:22:00,
2013-02-14 04:37:00,30.5,26.0,30.11,NW,311,0.0,0.0,84,0.00,,,0.00,0,weatherlink.com 1.10,2013-02-14 10:37:00,
2013-02-14 04:52:00,30.4,26.0,30.12,NW,310,0.0,0.0,84,0.00,,,0.00,0,weatherlink.com 1.10,2013-02-14 10:52:00,
2013-02-14 05:07:00,30.2,26.0,30.12,NW,310,0.0,0.0,83,0.00,,,0.00,0,weatherlink.com 1.10,2013-02-14 11:07:00,
2013-02-14 05:22:00,30.0,26.0,30.12,North,4,0.0,0.0,84,0.00,,,0.00,0,weatherlink.com 1.10,2013-02-14 11:22:00,
2013-02-14 05:38:00,29.8,25.0,30.12,NW,310,0.0,0.0,83,0.00,,,0.00,0,weatherlink.com 1.10,2013-02-14 11:38:00,
2013-02-14 05:52:00,29.8,26.0,30.12,NW,311,0.0,0.0,84,0.00,,,0.00,0,weatherlink.com 1.10,2013-02-14 11:52:00,
2013-02-14 06:07:00,29.7,25.0,30.12,North,4,0.0,0.0,84,0.00,,,0.00,0,weatherlink.com 1.10,2013-02-14 12:07:00,
2013-02-14 06:23:00,29.3,25.0,30.12,NW,310,0.0,0.0,84,0.00,,,0.00,0,weatherlink.com 1.10,2013-02-14 12:23:00,
2013-02-14 06:37:00,29.5,25.0,30.13,NW,310,0.0,0.0,84,0.00,,,0.00,0,weatherlink.com 1.10,2013-02-14 12:37:00,
2013-02-14 06:53:00,29.8,26.0,30.13,NW,310,0.0,0.0,84,0.00,,,0.00,0,weatherlink.com 1.10,2013-02-14 12:53:00,
2013-02-14 07:08:00,30.2,26.0,30.13,NW,310,0.0,0.0,84,0.00,,,0.00,12,weatherlink.com 1.10,2013-02-14 13:08:00,
2013-02-14 07:22:00,30.5,26.0,30.13,North,4,0.0,0.0,84,0.00,,,0.00,30,weatherlink.com 1.10,2013-02-14 13:22:00,
2013-02-14 07:37:00,31.0,27.0,30.13,NW,310,0.0,0.0,84,0.00,,,0.00,44,weatherlink.com 1.10,2013-02-14 13:37:00,
2013-02-14 07:53:00,31.8,28.0,30.14,NW,311,0.0,0.0,84,0.00,,,0.00,74,weatherlink.com 1.10,2013-02-14 13:53:00,
2013-02-14 08:08:00,33.0,29.0,30.14,NW,310,0.0,0.0,84,0.00,,,0.00,134,weatherlink.com 1.10,2013-02-14 14:08:00,
2013-02-14 08:23:00,34.6,30.0,30.14,NW,311,0.0,0.0,84,0.00,,,0.00,135,weatherlink.com 1.10,2013-02-14 14:23:00,
2013-02-14 08:38:00,36.9,33.0,30.15,NW,310,0.0,0.0,84,0.00,,,0.00,218,weatherlink.com 1.10,2013-02-14 14:38:00,
2013-02-14 08:53:00,39.7,35.0,30.16,NW,310,0.0,1.0,83,0.00,,,0.00,283,weatherlink.com 1.10,2013-02-14 14:53:00,
2013-02-14 09:08:00,42.3,38.0,30.16,NW,310,0.0,1.0,83,0.00,,,0.00,418,weatherlink.com 1.10,2013-02-14 15:08:00,
2013-02-14 09:23:00,44.3,39.0,30.15,NW,310,0.0,2.0,83,0.00,,,0.00,490,weatherlink.com 1.10,2013-02-14 15:23:00,
2013-02-14 09:38:00,47.0,42.0,30.15,North,4,0.0,2.0,82,0.00,,,0.00,534,weatherlink.com 1.10,2013-02-14 15:38:00,
2013-02-14 09:53:00,48.4,42.0,30.16,West,260,2.0,4.0,79,0.00,,,0.00,575,weatherlink.com 1.10,2013-02-14 15:53:00,
2013-02-14 10:08:00,48.9,41.0,30.15,SW,236,0.0,5.0,73,0.00,,,0.00,612,weatherlink.com 1.10,2013-02-14 16:08:00,
2013-02-14 10:24:00,50.3,41.0,30.16,SW,216,1.0,3.0,70,0.00,,,0.00,649,weatherlink.com 1.10,2013-02-14 16:24:00,
2013-02-14 10:38:00,51.8,41.0,30.16,SE,130,0.0,5.0,66,0.00,,,0.00,680,weatherlink.com 1.10,2013-02-14 16:38:00,
2013-02-14 10:53:00,52.3,41.0,30.16,SSW,211,2.0,4.0,65,0.00,,,0.00,705,weatherlink.com 1.10,2013-02-14 16:53:00,
2013-02-14 11:08:00,54.0,41.0,30.15,NW,325,1.0,2.0,61,0.00,,,0.00,729,weatherlink.com 1.10,2013-02-14 17:08:00,
2013-02-14 11:24:00,55.4,38.0,30.15,WNW,283,0.0,7.0,52,0.00,,,0.00,745,weatherlink.com 1.10,2013-02-14 17:24:00,
2013-02-14 11:39:00,56.2,40.0,30.15,West,260,0.0,5.0,56,0.00,,,0.00,761,weatherlink.com 1.10,2013-02-14 17:39:00,
2013-02-14 11:54:00,56.3,38.0,30.14,South,181,2.0,6.0,51,0.00,,,0.00,773,weatherlink.com 1.10,2013-02-14 17:54:00,
2013-02-14 12:09:00,57.8,39.0,30.14,SW,232,3.0,5.0,50,0.00,,,0.00,777,weatherlink.com 1.10,2013-02-14 18:09:00,
2013-02-14 12:24:00,58.2,39.0,30.13,North,4,0.0,4.0,50,0.00,,,0.00,779,weatherlink.com 1.10,2013-02-14 18:24:00,
2013-02-14 12:39:00,59.1,40.0,30.12,WSW,244,1.0,5.0,50,0.00,,,0.00,773,weatherlink.com 1.10,2013-02-14 18:39:00,
2013-02-14 12:54:00,58.7,39.0,30.11,NW,322,0.0,6.0,48,0.00,,,0.00,766,weatherlink.com 1.10,2013-02-14 18:54:00,
2013-02-14 13:09:00,59.6,39.0,30.11,South,180,0.0,5.0,47,0.00,,,0.00,752,weatherlink.com 1.10,2013-02-14 19:09:00,
2013-02-14 13:24:00,60.7,38.0,30.10,NNE,13,1.0,5.0,44,0.00,,,0.00,737,weatherlink.com 1.10,2013-02-14 19:24:00,
2013-02-14 13:39:00,61.0,38.0,30.09,NW,304,1.0,5.0,43,0.00,,,0.00,715,weatherlink.com 1.10,2013-02-14 19:39:00,
2013-02-14 13:54:00,61.2,39.0,30.08,North,4,2.0,6.0,44,0.00,,,0.00,691,weatherlink.com 1.10,2013-02-14 19:54:00,
2013-02-14 14:09:00,61.9,38.0,30.08,NNE,17,2.0,6.0,42,0.00,,,0.00,659,weatherlink.com 1.10,2013-02-14 20:09:00,
2013-02-14 14:24:00,62.3,40.0,30.07,NE,49,1.0,2.0,44,0.00,,,0.00,631,weatherlink.com 1.10,2013-02-14 20:24:00,
2013-02-14 14:39:00,62.2,39.0,30.07,NNE,23,2.0,4.0,43,0.00,,,0.00,591,weatherlink.com 1.10,2013-02-14 20:39:00,
2013-02-14 14:54:00,61.9,40.0,30.07,WNW,292,1.0,6.0,44,0.00,,,0.00,554,weatherlink.com 1.10,2013-02-14 20:54:00,
2013-02-14 15:09:00,61.9,39.0,30.07,NNE,26,0.0,6.0,43,0.00,,,0.00,510,weatherlink.com 1.10,2013-02-14 21:09:00,
2013-02-14 15:24:00,61.2,41.0,30.07,WSW,247,4.0,5.0,47,0.00,,,0.00,466,weatherlink.com 1.10,2013-02-14 21:24:00,
2013-02-14 15:39:00,60.9,39.0,30.06,WSW,255,1.0,7.0,45,0.00,,,0.00,418,weatherlink.com 1.10,2013-02-14 21:39:00,
2013-02-14 15:54:00,61.3,40.0,30.06,NW,319,2.0,5.0,46,0.00,,,0.00,366,weatherlink.com 1.10,2013-02-14 21:54:00,
2013-02-14 16:09:00,61.1,39.0,30.06,WSW,247,3.0,5.0,45,0.00,,,0.00,313,weatherlink.com 1.10,2013-02-14 22:09:00,
2013-02-14 16:24:00,60.7,41.0,30.06,WSW,248,1.0,2.0,48,0.00,,,0.00,93,weatherlink.com 1.10,2013-02-14 22:24:00,
2013-02-14 16:39:00,60.5,41.0,30.06,SW,235,1.0,4.0,49,0.00,,,0.00,37,weatherlink.com 1.10,2013-02-14 22:39:00,
2013-02-14 16:54:00,60.2,41.0,30.06,North,4,0.0,2.0,49,0.00,,,0.00,33,weatherlink.com 1.10,2013-02-14 22:54:00,
2013-02-14 17:09:00,59.3,44.0,30.07,WSW,237,0.0,1.0,57,0.00,,,0.00,37,weatherlink.com 1.10,2013-02-14 23:09:00,
2013-02-14 17:24:00,58.1,42.0,30.07,North,4,0.0,2.0,55,0.00,,,0.00,23,weatherlink.com 1.10,2013-02-14 23:24:00,
2013-02-14 17:39:00,57.0,44.0,30.07,SW,236,0.0,0.0,63,0.00,,,0.00,14,weatherlink.com 1.10,2013-02-14 23:39:00,
2013-02-14 17:54:00,55.0,44.0,30.07,WSW,237,0.0,0.0,67,0.00,,,0.00,5,weatherlink.com 1.10,2013-02-14 23:54:00,
2013-02-14 18:09:00,53.1,43.0,30.07,SW,236,0.0,0.0,69,0.00,,,0.00,0,weatherlink.com 1.10,2013-02-15 00:09:00,
2013-02-14 18:24:00,51.1,42.0,30.07,SW,236,0.0,0.0,72,0.00,,,0.00,0,weatherlink.com 1.10,2013-02-15 00:24:00,
2013-02-14 18:39:00,49.3,41.0,30.08,SW,236,0.0,0.0,73,0.00,,,0.00,0,weatherlink.com 1.10,2013-02-15 00:39:00,
2013-02-14 18:54:00,48.0,40.0,30.08,SW,236,0.0,0.0,75,0.00,,,0.00,0,weatherlink.com 1.10,2013-02-15 00:54:00,
2013-02-14 19:09:00,46.7,40.0,30.09,SW,236,0.0,0.0,76,0.00,,,0.00,0,weatherlink.com 1.10,2013-02-15 01:09:00,
2013-02-14 19:24:00,45.7,39.0,30.09,SW,236,0.0,0.0,78,0.00,,,0.00,0,weatherlink.com 1.10,2013-02-15 01:24:00,
2013-02-14 19:39:00,45.0,39.0,30.09,SW,236,0.0,0.0,79,0.00,,,0.00,0,weatherlink.com 1.10,2013-02-15 01:39:00,
2013-02-14 19:55:00,43.9,38.0,30.09,WSW,237,0.0,0.0,79,0.00,,,0.00,0,weatherlink.com 1.10,2013-02-15 01:55:00,
2013-02-14 20:09:00,43.0,37.0,30.09,SW,236,0.0,0.0,79,0.00,,,0.00,0,weatherlink.com 1.10,2013-02-15 02:09:00,
2013-02-14 20:24:00,42.8,37.0,30.09,SW,236,0.0,0.0,80,0.00,,,0.00,0,weatherlink.com 1.10,2013-02-15 02:24:00,
2013-02-14 20:40:00,42.2,37.0,30.09,North,4,0.0,0.0,81,0.00,,,0.00,0,weatherlink.com 1.10,2013-02-15 02:40:00,
2013-02-14 20:54:00,41.6,36.0,30.10,North,4,0.0,0.0,81,0.00,,,0.00,0,weatherlink.com 1.10,2013-02-15 02:54:00,
2013-02-14 21:09:00,41.0,36.0,30.10,SW,236,0.0,0.0,81,0.00,,,0.00,0,weatherlink.com 1.10,2013-02-15 03:09:00,
2013-02-14 21:24:00,40.6,35.0,30.10,SW,235,0.0,0.0,81,0.00,,,0.00,0,weatherlink.com 1.10,2013-02-15 03:24:00,
2013-02-14 21:40:00,40.2,35.0,30.10,North,4,0.0,0.0,81,0.00,,,0.00,0,weatherlink.com 1.10,2013-02-15 03:40:00,
2013-02-14 21:54:00,39.9,35.0,30.11,SW,236,0.0,0.0,81,0.00,,,0.00,0,weatherlink.com 1.10,2013-02-15 03:54:00,
2013-02-14 22:09:00,39.4,34.0,30.11,North,4,0.0,0.0,81,0.00,,,0.00,0,weatherlink.com 1.10,2013-02-15 04:09:00,
2013-02-14 22:24:00,39.4,34.0,30.11,SW,236,0.0,0.0,82,0.00,,,0.00,0,weatherlink.com 1.10,2013-02-15 04:24:00,
2013-02-14 22:39:00,39.2,34.0,30.12,SW,236,0.0,0.0,82,0.00,,,0.00,0,weatherlink.com 1.10,2013-02-15 04:39:00,
2013-02-14 22:54:00,38.8,34.0,30.11,SW,236,0.0,0.0,82,0.00,,,0.00,0,weatherlink.com 1.10,2013-02-15 04:54:00,
2013-02-14 23:10:00,38.4,33.0,30.11,WSW,237,0.0,0.0,82,0.00,,,0.00,0,weatherlink.com 1.10,2013-02-15 05:10:00,
2013-02-14 23:25:00,38.1,33.0,30.10,SW,236,0.0,0.0,82,0.00,,,0.00,0,weatherlink.com 1.10,2013-02-15 05:25:00,
2013-02-14 23:40:00,37.9,33.0,30.11,SW,236,0.0,0.0,82,0.00,,,0.00,0,weatherlink.com 1.10,2013-02-15 05:40:00,
2013-02-14 23:54:00,37.3,32.0,30.11,SW,236,0.0,0.0,82,0.00,,,0.00,0,weatherlink.com 1.10,2013-02-15 05:54:00,